| time (UTC) | temp F | wind direction | speed MPH | gust MPH | rain 1hr in | rain 24hr in | rain mn in | humidity % | barometer mb |
| 20260504024101 | 58 | 326 | 3.0 | 5.0 | 0.00 | 0.00 | 0.01 | 1005.8 | |
| 20260504023935 | 58 | 326 | 3.0 | 5.0 | 0.00 | 0.00 | 0.01 | 1005.8 | |
| 20260504023448 | 58 | 328 | 3.0 | 6.0 | 0.00 | 0.00 | 0.01 | 1005.8 | |
| 20260504023337 | 59 | 325 | 3.0 | 6.0 | 0.00 | 0.00 | 0.01 | 1005.8 | |
| 20260504023214 | 59 | 325 | 3.0 | 6.0 | 0.00 | 0.00 | 0.01 | 1005.8 | |
| 20260504022935 | 59 | 325 | 3.0 | 6.0 | 0.00 | 0.00 | 0.01 | 1005.8 | |
| 20260504022255 | 59 | 325 | 3.0 | 5.0 | 0.00 | 0.00 | 0.01 | 1005.8 | |
| 20260504021935 | 59 | 325 | 3.0 | 5.0 | 0.00 | 0.00 | 0.01 | 1005.8 | |
| 20260504021534 | 60 | 323 | 3.0 | 6.0 | 0.00 | 0.00 | 0.01 | 1005.8 | |
| 20260504021448 | 59 | 321 | 2.0 | 5.0 | 0.00 | 0.00 | 0.01 | 1005.8 | |
| 20260504020937 | 60 | 323 | 3.0 | 6.0 | 0.00 | 0.00 | 0.01 | 1005.8 | |
| 20260504020434 | 61 | 329 | 2.0 | 6.0 | 0.00 | 0.00 | 0.01 | 1005.5 | |
| 20260504015936 | 61 | 329 | 2.0 | 6.0 | 0.00 | 0.00 | 0.01 | 1005.5 | |
| 20260504015448 | 61 | 326 | 3.0 | 6.0 | 0.00 | 0.00 | 0.01 | 1005.5 | |
| 20260504015144 | 61 | 332 | 5.0 | 7.0 | 0.00 | 0.00 | 0.01 | 1005.5 | |
| 20260504014936 | 61 | 332 | 5.0 | 7.0 | 0.00 | 0.00 | 0.01 | 1005.5 | |
| 20260504014433 | 61 | 332 | 4.0 | 7.0 | 0.00 | 0.00 | 0.01 | 1005.5 | |
| 20260504013936 | 61 | 332 | 4.0 | 7.0 | 0.00 | 0.00 | 0.01 | 1005.5 | |
| 20260504013447 | 61 | 325 | 3.0 | 5.0 | 0.00 | 0.00 | 0.01 | 1005.5 | |
| 20260504013431 | 62 | 321 | 2.0 | 8.0 | 0.00 | 0.00 | 0.01 | 1005.5 | |
| 20260504012938 | 62 | 321 | 2.0 | 8.0 | 0.00 | 0.00 | 0.01 | 1005.5 | |
| 20260504012249 | 63 | 325 | 2.0 | 10.0 | 0.00 | 0.00 | 0.01 | 1005.5 | |
| 20260504011938 | 63 | 325 | 2.0 | 10.0 | 0.00 | 0.00 | 0.01 | 1005.5 | |
| 20260504011533 | 63 | 8 | 3.0 | 11.0 | 0.00 | 0.00 | 0.01 | 1005.5 | |
| 20260504011447 | 63 | 13 | 7.0 | 10.0 | 0.00 | 0.00 | 0.01 | 1005.5 | |
| 20260504011431 | 63 | 8 | 3.0 | 11.0 | 0.00 | 0.00 | 0.01 | 1005.5 | |
| 20260504010936 | 63 | 8 | 3.0 | 11.0 | 0.00 | 0.00 | 0.01 | 1005.5 | |
| 20260504010211 | 64 | 17 | 4.0 | 10.0 | 0.00 | 0.00 | 0.01 | 1005.5 | |
| 20260504005936 | 64 | 17 | 4.0 | 10.0 | 0.00 | 0.00 | 0.01 | 1005.5 | |
| 20260504005447 | 65 | 15 | 4.0 | 10.0 | 0.00 | 0.00 | 0.01 | 1005.5 | |
| 20260504005304 | 65 | 308 | 4.0 | 12.0 | 0.00 | 0.00 | 0.01 | 1005.1 | |
| 20260504004213 | 66 | 4 | 7.0 | 14.0 | 0.00 | 0.00 | 0.01 | 1005.1 | |
| 20260504003938 | 66 | 4 | 7.0 | 14.0 | 0.00 | 0.00 | 0.01 | 1005.1 | |
| 20260504003532 | 67 | 7 | 5.0 | 14.0 | 0.00 | 0.00 | 0.01 | 1005.1 | |
| 20260504003447 | 66 | 6 | 4.0 | 14.0 | 0.00 | 0.00 | 0.01 | 1005.1 | |
| 20260504002939 | 67 | 7 | 5.0 | 14.0 | 0.00 | 0.00 | 0.01 | 1005.1 | |
| 20260504001447 | 67 | 325 | 6.0 | 10.0 | 0.00 | 0.00 | 0.01 | 1004.8 | |
| 20260504000939 | 68 | 359 | 4.0 | 10.0 | 0.00 | 0.00 | 0.01 | 1004.8 | |
| 20260503235446 | 69 | 350 | 2.0 | 9.0 | 0.00 | 0.00 | 0.01 | 1004.8 | |
| 20260503233448 | 73 | 314 | 5.0 | 11.0 | 0.00 | 0.00 | 0.01 | 1004.8 | |
| 20260503231446 | 70 | 325 | 3.0 | 9.0 | 0.00 | 0.00 | 0.01 | 1004.8 | |
| 20260503225446 | 70 | 345 | 7.0 | 13.0 | 0.00 | 0.00 | 0.01 | 1004.8 | |
| 20260503223445 | 71 | 333 | 2.0 | 12.0 | 0.00 | 0.00 | 0.01 | 1004.8 | |
| 20260503221447 | 71 | 309 | 4.0 | 16.0 | 0.00 | 0.00 | 0.01 | 1004.8 | |
| 20260503215447 | 70 | 323 | 5.0 | 14.0 | 0.00 | 0.00 | 0.01 | 1004.8 | |
| 20260503214712 | 69 | 330 | 7.0 | 20.0 | 0.00 | 0.00 | 0.01 | 1004.8 | |
| 20260503213529 | 69 | 329 | 5.0 | 16.0 | 0.00 | 0.00 | 0.01 | 1005.1 | |
| 20260503213446 | 70 | 316 | 7.0 | 16.0 | 0.00 | 0.00 | 0.01 | 1004.8 | |
| 20260503212937 | 69 | 329 | 5.0 | 16.0 | 0.00 | 0.00 | 0.01 | 1005.1 | |
| 20260503212244 | 69 | 1 | 5.0 | 16.0 | 0.00 | 0.00 | 0.01 | 1005.1 | |
| 20260503211937 | 69 | 1 | 5.0 | 16.0 | 0.00 | 0.00 | 0.01 | 1005.1 | |
| 20260503211802 | 69 | 3 | 8.0 | 16.0 | 0.00 | 0.00 | 0.01 | 1005.1 | |
| 20260503211711 | 69 | 10 | 6.0 | 16.0 | 0.00 | 0.00 | 0.01 | 1005.1 | |
| 20260503210937 | 69 | 10 | 6.0 | 16.0 | 0.00 | 0.00 | 0.01 | 1005.1 | |
| 20260503210411 | 69 | 357 | 10.0 | 15.0 | 0.00 | 0.00 | 0.01 | 1005.1 | |
| 20260503205936 | 69 | 357 | 10.0 | 15.0 | 0.00 | 0.00 | 0.01 | 1005.1 | |
| 20260503205804 | 69 | 347 | 3.0 | 15.0 | 0.00 | 0.00 | 0.01 | 1005.1 | |
| 20260503205529 | 68 | 325 | 7.0 | 18.0 | 0.00 | 0.00 | 0.01 | 1005.5 | |
| 20260503204939 | 68 | 325 | 7.0 | 18.0 | 0.00 | 0.00 | 0.01 | 1005.5 | |
| 20260503204529 | 68 | 325 | 6.0 | 15.0 | 0.00 | 0.00 | 0.01 | 1005.5 | |
| 20260503203936 | 68 | 325 | 6.0 | 15.0 | 0.00 | 0.00 | 0.01 | 1005.5 | |
| 20260503203804 | 68 | 322 | 8.0 | 15.0 | 0.00 | 0.00 | 0.01 | 1005.5 | |
| 20260503202239 | 68 | 333 | 12.0 | 17.0 | 0.00 | 0.00 | 0.01 | 1005.8 | |
| 20260503201936 | 68 | 333 | 12.0 | 17.0 | 0.00 | 0.00 | 0.01 | 1005.8 | |
| 20260503201804 | 68 | 302 | 5.0 | 16.0 | 0.00 | 0.00 | 0.01 | 1005.8 | |
| 20260503201710 | 67 | 336 | 9.0 | 18.0 | 0.00 | 0.00 | 0.01 | 1005.8 | |
| 20260503200936 | 67 | 336 | 9.0 | 18.0 | 0.00 | 0.00 | 0.01 | 1005.8 | |
| 20260503200528 | 67 | 319 | 12.0 | 24.0 | 0.00 | 0.00 | 0.01 | 1005.8 | |
| 20260503195936 | 67 | 319 | 12.0 | 24.0 | 0.00 | 0.00 | 0.01 | 1005.8 | |
| 20260503195803 | 67 | 325 | 11.0 | 21.0 | 0.00 | 0.00 | 0.01 | 1005.8 | |
| 20260503195241 | 66 | 11 | 9.0 | 20.0 | 0.00 | 0.00 | 0.01 | 1006.1 | |
| 20260503194938 | 66 | 11 | 9.0 | 20.0 | 0.00 | 0.00 | 0.01 | 1006.1 | |
| 20260503194710 | 66 | 339 | 12.0 | 19.0 | 0.00 | 0.00 | 0.01 | 1006.1 | |
| 20260503193938 | 66 | 339 | 12.0 | 19.0 | 0.00 | 0.00 | 0.01 | 1006.1 | |
| 20260503193803 | 66 | 314 | 6.0 | 17.0 | 0.00 | 0.00 | 0.01 | 1006.5 | |
| 20260503193527 | 66 | 335 | 8.0 | 23.0 | 0.00 | 0.00 | 0.01 | 1006.5 | |
| 20260503192938 | 66 | 335 | 8.0 | 23.0 | 0.00 | 0.00 | 0.01 | 1006.5 | |
| 20260503192238 | 65 | 321 | 11.0 | 21.0 | 0.00 | 0.00 | 0.01 | 1006.8 | |
| 20260503191937 | 65 | 321 | 11.0 | 21.0 | 0.00 | 0.00 | 0.01 | 1006.8 | |
| 20260503191803 | 65 | 347 | 11.0 | 21.0 | 0.00 | 0.00 | 0.01 | 1006.8 | |
| 20260503191715 | 65 | 318 | 7.0 | 25.0 | 0.00 | 0.00 | 0.01 | 1006.8 | |
| 20260503190937 | 65 | 318 | 7.0 | 25.0 | 0.00 | 0.00 | 0.01 | 1006.8 | |
| 20260503190402 | 65 | 3 | 6.0 | 22.0 | 0.00 | 0.00 | 0.01 | 1006.8 | |
| 20260503185937 | 65 | 3 | 6.0 | 22.0 | 0.00 | 0.00 | 0.01 | 1006.8 | |
| 20260503185803 | 65 | 4 | 9.0 | 22.0 | 0.00 | 0.00 | 0.01 | 1006.8 | |
| 20260503185400 | 64 | 335 | 11.0 | 20.0 | 0.00 | 0.00 | 0.01 | 1006.8 | |
| 20260503184937 | 64 | 335 | 11.0 | 20.0 | 0.00 | 0.00 | 0.01 | 1006.8 | |
| 20260503184710 | 64 | 332 | 14.0 | 19.0 | 0.00 | 0.00 | 0.01 | 1006.8 | |
| 20260503183937 | 64 | 332 | 14.0 | 19.0 | 0.00 | 0.00 | 0.01 | 1006.8 | |
| 20260503183802 | 64 | 6 | 11.0 | 19.0 | 0.00 | 0.00 | 0.01 | 1006.8 | |
| 20260503183641 | 63 | 326 | 8.0 | 26.0 | 0.00 | 0.00 | 0.01 | 1006.8 | |
| 20260503182937 | 63 | 326 | 8.0 | 26.0 | 0.00 | 0.00 | 0.01 | 1006.8 | |
| 20260503182200 | 63 | 345 | 10.0 | 22.0 | 0.00 | 0.00 | 0.01 | 1007.2 | |
| 20260503181938 | 63 | 345 | 10.0 | 22.0 | 0.00 | 0.00 | 0.01 | 1007.2 | |
| 20260503181802 | 63 | 14 | 10.0 | 22.0 | 0.00 | 0.00 | 0.01 | 1007.2 | |
| 20260503181715 | 62 | 318 | 10.0 | 26.0 | 0.00 | 0.00 | 0.01 | 1007.2 | |
| 20260503180711 | 63 | 321 | 11.0 | 22.0 | 0.00 | 0.00 | 0.01 | 1007.5 | |
| 20260503175937 | 63 | 321 | 11.0 | 22.0 | 0.00 | 0.00 | 0.01 | 1007.5 | |
| 20260503175804 | 63 | 328 | 9.0 | 22.0 | 0.00 | 0.00 | 0.01 | 1007.5 | |
| 20260503175356 | 63 | 15 | 10.0 | 22.0 | 0.00 | 0.00 | 0.01 | 1007.5 | |
| 20260503174938 | 63 | 15 | 10.0 | 22.0 | 0.00 | 0.00 | 0.01 | 1007.5 | |
| 20260503174526 | 62 | 333 | 10.0 | 21.0 | 0.00 | 0.00 | 0.01 | 1007.5 | |
| 20260503173936 | 62 | 333 | 10.0 | 21.0 | 0.00 | 0.00 | 0.01 | 1007.5 | |
| 20260503173804 | 62 | 328 | 12.0 | 21.0 | 0.00 | 0.00 | 0.01 | 1007.5 | |
| 20260503173642 | 63 | 314 | 10.0 | 26.0 | 0.00 | 0.00 | 0.01 | 1007.5 | |
| 20260503172936 | 63 | 314 | 10.0 | 26.0 | 0.00 | 0.00 | 0.01 | 1007.5 | |
| 20260503172238 | 62 | 347 | 11.0 | 22.0 | 0.00 | 0.00 | 0.01 | 1007.5 | |
| 20260503171936 | 62 | 347 | 11.0 | 22.0 | 0.00 | 0.00 | 0.01 | 1007.5 | |
| 20260503171804 | 62 | 323 | 10.0 | 22.0 | 0.00 | 0.00 | 0.01 | 1007.5 | |
| 20260503170936 | 62 | 357 | 13.0 | 23.0 | 0.00 | 0.00 | 0.01 | 1007.5 | |
| 20260503170711 | 61 | 347 | 12.0 | 26.0 | 0.00 | 0.00 | 0.01 | 1007.8 | |
| 20260503150937 | 59 | 305 | 12.0 | 23.0 | 0.00 | 0.00 | 0.01 | 1008.8 | |
| 20260503150343 | 56 | 338 | 13.0 | 21.0 | 0.00 | 0.00 | 0.01 | 1009.2 | |
| 20260503150152 | 56 | 338 | 13.0 | 21.0 | 0.00 | 0.00 | 0.01 | 1009.2 | |
| 20260503131021 | 48 | 319 | 8.0 | 17.0 | 0.00 | 0.00 | 0.01 | 1010.9 | |
| 20260503130935 | 48 | 319 | 8.0 | 17.0 | 0.00 | 0.00 | 0.01 | 1010.9 | |
| 20260503120121 | 48 | 326 | 9.0 | 17.0 | 0.00 | 0.00 | 0.00 | 1011.9 | |
| 20260503100112 | 45 | 332 | 11.0 | 17.0 | 0.00 | 0.00 | 0.00 | 1011.6 | |
| 20260503080937 | 47 | 333 | 9.0 | 17.0 | 0.00 | 0.00 | 0.00 | 1012.2 | |
| 20260503080103 | 46 | 339 | 10.0 | 17.0 | 0.00 | 0.00 | 0.00 | 1012.6 | |
| 20260503072936 | 46 | 333 | 10.0 | 17.0 | 0.00 | 0.00 | 0.00 | 1012.6 | |
| 20260503071936 | 46 | 335 | 9.0 | 15.0 | 0.00 | 0.00 | 0.00 | 1012.6 | |
| 20260503071804 | 46 | 333 | 8.0 | 15.0 | 0.00 | 0.00 | 0.00 | 1012.6 | |
| 20260503070936 | 45 | 328 | 9.0 | 17.0 | 0.00 | 0.00 | 0.00 | 1012.6 | |
| 20260503070106 | 45 | 325 | 10.0 | 15.0 | 0.00 | 0.00 | 0.00 | 1012.9 | |
| 20260503054937 | 45 | 318 | 9.0 | 16.0 | 0.00 | 0.00 | 0.00 | 1013.2 | |
| 20260503054148 | 45 | 315 | 8.0 | 14.0 | 0.00 | 0.00 | 0.00 | 1013.6 | |
| 20260503053935 | 45 | 315 | 8.0 | 14.0 | 0.00 | 0.00 | 0.00 | 1013.6 | |
| 20260503053803 | 45 | 311 | 8.0 | 15.0 | 0.00 | 0.00 | 0.00 | 1013.6 | |
| 20260503053108 | 45 | 326 | 10.0 | 15.0 | 0.00 | 0.00 | 0.00 | 1013.6 | |
| 20260503052935 | 45 | 326 | 10.0 | 15.0 | 0.00 | 0.00 | 0.00 | 1013.6 | |
| 20260503052021 | 46 | 318 | 8.0 | 15.0 | 0.00 | 0.00 | 0.00 | 1013.6 | |
| 20260503051935 | 46 | 318 | 8.0 | 15.0 | 0.00 | 0.00 | 0.00 | 1013.6 | |
| 20260503051802 | 46 | 311 | 8.0 | 15.0 | 0.00 | 0.00 | 0.00 | 1013.6 | |
| 20260503051251 | 46 | 319 | 9.0 | 16.0 | 0.00 | 0.00 | 0.00 | 1013.6 | |
| 20260503050935 | 46 | 319 | 9.0 | 16.0 | 0.00 | 0.00 | 0.00 | 1013.6 | |
| 20260503050058 | 46 | 312 | 8.0 | 14.0 | 0.00 | 0.00 | 0.00 | 1013.6 | |
| 20260503045935 | 46 | 312 | 8.0 | 14.0 | 0.00 | 0.00 | 0.00 | 1013.6 | |
| 20260503045802 | 46 | 314 | 9.0 | 14.0 | 0.00 | 0.00 | 0.00 | 1013.6 | |
| 20260503045019 | 46 | 323 | 9.0 | 15.0 | 0.00 | 0.00 | 0.00 | 1013.6 | |
| 20260503044935 | 46 | 323 | 9.0 | 15.0 | 0.00 | 0.00 | 0.00 | 1013.6 | |
| 20260503044101 | 46 | 322 | 8.0 | 13.0 | 0.00 | 0.00 | 0.00 | 1013.6 | |
| 20260503043935 | 46 | 322 | 8.0 | 13.0 | 0.00 | 0.00 | 0.00 | 1013.6 | |
| 20260503043804 | 46 | 323 | 7.0 | 13.0 | 0.00 | 0.00 | 0.00 | 1013.6 | |
| 20260503043057 | 46 | 309 | 7.0 | 13.0 | 0.00 | 0.00 | 0.00 | 1013.6 | |
| 20260503042935 | 46 | 309 | 7.0 | 13.0 | 0.00 | 0.00 | 0.00 | 1013.6 | |
| 20260503042021 | 46 | 315 | 7.0 | 12.0 | 0.00 | 0.00 | 0.00 | 1013.9 | |
| 20260503041935 | 46 | 315 | 7.0 | 12.0 | 0.00 | 0.00 | 0.00 | 1013.9 | |
| 20260503041804 | 46 | 312 | 8.0 | 12.0 | 0.00 | 0.00 | 0.00 | 1013.9 | |
| 20260503041108 | 46 | 322 | 8.0 | 13.0 | 0.00 | 0.00 | 0.00 | 1013.9 | |
| 20260503040934 | 46 | 322 | 8.0 | 13.0 | 0.00 | 0.00 | 0.00 | 1013.9 | |
| 20260503040056 | 47 | 312 | 8.0 | 13.0 | 0.00 | 0.00 | 0.00 | 1014.3 | |
| 20260503035934 | 47 | 312 | 8.0 | 13.0 | 0.00 | 0.00 | 0.00 | 1014.3 | |
| 20260503035803 | 47 | 319 | 8.0 | 13.0 | 0.00 | 0.00 | 0.00 | 1014.3 | |
| 20260503034936 | 47 | 314 | 7.0 | 11.0 | 0.00 | 0.00 | 0.00 | 1014.3 | |
| 20260503034215 | 47 | 315 | 5.0 | 10.0 | 0.00 | 0.00 | 0.00 | 1014.3 | |
| 20260503033936 | 47 | 315 | 5.0 | 10.0 | 0.00 | 0.00 | 0.00 | 1014.3 | |
| 20260503033803 | 47 | 307 | 7.0 | 10.0 | 0.00 | 0.00 | 0.00 | 1014.3 | |
| 20260503033055 | 47 | 305 | 5.0 | 11.0 | 0.00 | 0.00 | 0.00 | 1014.3 | |
| 20260503032934 | 47 | 305 | 5.0 | 11.0 | 0.00 | 0.00 | 0.00 | 1014.3 | |
| 20260503032013 | 48 | 305 | 7.0 | 10.0 | 0.00 | 0.00 | 0.00 | 1014.6 | |
| 20260503031934 | 48 | 305 | 7.0 | 10.0 | 0.00 | 0.00 | 0.00 | 1014.6 | |
| 20260503031803 | 47 | 309 | 6.0 | 10.0 | 0.00 | 0.00 | 0.00 | 1014.6 | |
| 20260503031248 | 48 | 315 | 7.0 | 10.0 | 0.00 | 0.00 | 0.00 | 1014.6 | |
| 20260503030935 | 48 | 315 | 7.0 | 10.0 | 0.00 | 0.00 | 0.00 | 1014.6 | |
| 20260503030229 | 48 | 309 | 6.0 | 11.0 | 0.00 | 0.00 | 0.00 | 1014.6 | |
| 20260503025935 | 48 | 309 | 6.0 | 11.0 | 0.00 | 0.00 | 0.00 | 1014.6 | |
| 20260503025804 | 48 | 315 | 7.0 | 11.0 | 0.00 | 0.00 | 0.00 | 1014.6 | |
| 20260503024936 | 48 | 309 | 7.0 | 11.0 | 0.00 | 0.00 | 0.00 | 1014.6 |